Temperature
-3 -2 -2 -2 -2 -1 -1 -1 -1 -0 -0 -0 -0 -0 -0 -0 -0 -0 -0 -0 -0 -1 -1 -1 -0 -1 -1 -1 -1 -1 -1 -1 -1 -1 -1 -1 -1 -1 -0 -0 -0 -0 -0
-4 -3 -3 -3 -2 -2 -2 -2 -1 -1 -1 -1 -1 -0 -0 -0 -1 -1 -1 -1 -1 -1 -1 -1 -1 -1 -1 -1 -1 -1 -1 -1 -1 -1 -1 -1 -1 -1 -1 -1 -1 -1 -1
-4 -4 -4 -3 -3 -3 -3 -2 -2 -2 -2 -1 -1 -1 -1 -1 -1 -1 -1 -1 -1 -1 -1 -1 -1 -1 -1 -1 -1 -1 -2 -2 -2 -2 -2 -2 -2 -2 -2 -2 -2 -2 -2
-5 -5 -4 -4 -4 -4 -3 -3 -3 -3 -2 -2 -2 -2 -2 -1 -2 -2 -2 -2 -2 -2 -2 -2 -2 -2 -2 -2 -2 -2 -2 -2 -2 -3 -3 -3 -3 -2 -3 -2 -2 -2 -2
-6 -5 -5 -5 -5 -4 -4 -4 -4 -4 -3 -3 -3 -2 -2 -2 -2 -2 -2 -2 -2 -2 -2 -2 -2 -2 -2 -2 -2 -2 -3 -3 -3 -3 -3 -3 -3 -3 -3 -3 -3 -3 -3
-6 -6 -6 -6 -5 -5 -5 -5 -4 -4 -4 -4 -3 -3 -3 -3 -3 -3 -3 -3 -3 -3 -3 -3 -3 -3 -3 -3 -3 -3 -3 -3 -3 -3 -3 -3 -3 -3 -3 -3 -4 -4 -4
-6 -6 -6 -6 -6 -6 -6 -5 -5 -5 -5 -5 -4 -4 -4 -4 -4 -4 -4 -4 -4 -3 -3 -4 -3 -3 -3 -3 -3 -4 -4 -4 -4 -4 -4 -3 -4 -4 -4 -4 -4 -4 -4
-7 -7 -7 -7 -7 -6 -7 -6 -6 -6 -6 -5 -5 -5 -5 -4 -4 -4 -4 -4 -4 -4 -4 -4 -4 -4 -4 -4 -4 -4 -4 -4 -4 -4 -4 -4 -4 -4 -4 -4 -4 -5 -5
-8 -8 -8 -8 -7 -7 -7 -7 -7 -7 -6 -6 -6 -5 -5 -5 -5 -5 -5 -5 -5 -5 -5 -5 -4 -4 -4 -5 -5 -5 -5 -5 -5 -5 -5 -5 -5 -5 -5 -5 -5 -5 -5
-9 -9 -9 -9 -8 -8 -8 -8 -8 -7 -7 -7 -6 -6 -6 -6 -6 -6 -6 -6 -6 -6 -5 -5 -5 -5 -5 -5 -5 -5 -5 -5 -5 -5 -5 -6 -6 -6 -6 -5 -5 -6 -6
-10 -9 -9 -9 -9 -9 -9 -9 -8 -8 -8 -7 -7 -7 -7 -7 -7 -7 -7 -6 -6 -6 -6 -6 -6 -6 -6 -6 -6 -6 -6 -6 -6 -6 -6 -6 -6 -6 -6 -6 -6 -6 -6
-10 -10 -10 -10 -10 -10 -10 -9 -9 -9 -8 -8 -8 -8 -8 -8 -7 -7 -7 -7 -7 -7 -7 -6 -6 -6 -6 -6 -6 -6 -6 -6 -6 -6 -6 -6 -6 -6 -6 -6 -6 -7 -6
-11 -11 -10 -10 -10 -10 -10 -10 -10 -10 -9 -9 -9 -9 -9 -8 -8 -8 -8 -8 -8 -7 -7 -7 -7 -7 -7 -7 -7 -7 -7 -7 -7 -7 -7 -7 -7 -7 -7 -7 -7 -7 -7
-11 -11 -11 -11 -11 -11 -11 -11 -11 -10 -10 -10 -10 -10 -9 -9 -9 -9 -8 -8 -8 -8 -8 -8 -8 -8 -8 -8 -8 -7 -7 -7 -7 -7 -8 -8 -8 -8 -8 -8 -8 -8 -8
-12 -12 -12 -12 -11 -11 -11 -11 -11 -11 -11 -11 -10 -10 -10 -10 -9 -9 -9 -9 -9 -9 -8 -8 -8 -8 -8 -8 -8 -8 -8 -8 -8 -8 -8 -8 -8 -8 -8 -8 -8 -9 -9
-13 -13 -12 -12 -12 -12 -12 -11 -11 -11 -11 -11 -11 -10 -10 -10 -10 -10 -10 -10 -9 -9 -9 -9 -9 -9 -9 -9 -9 -9 -9 -9 -9 -9 -9 -9 -9 -9 -9 -9 -9 -9 -9
-13 -13 -13 -13 -13 -12 -12 -12 -12 -12 -11 -11 -11 -11 -11 -11 -10 -10 -10 -10 -10 -9 -10 -9 -9 -9 -9 -9 -9 -9 -9 -9 -9 -9 -9 -9 -9 -9 -9 -9 -10 -10 -10
-14 -14 -14 -13 -13 -13 -13 -13 -13 -13 -12 -12 -12 -12 -11 -11 -11 -11 -11 -10 -10 -10 -10 -10 -10 -10 -10 -10 -10 -10 -10 -10 -10 -10 -10 -10 -10 -10 -10 -10 -10 -10 -10
-14 -14 -14 -14 -14 -14 -14 -13 -13 -13 -13 -13 -12 -12 -12 -12 -12 -11 -11 -11 -11 -11 -11 -10 -10 -10 -10 -10 -10 -10 -10 -10 -10 -10 -10 -10 -10 -10 -10 -10 -10 -11 -11
-15 -15 -15 -15 -14 -14 -14 -14 -14 -14 -13 -13 -13 -13 -13 -12 -12 -12 -12 -12 -11 -11 -11 -11 -11 -11 -11 -11 -11 -10 -10 -10 -10 -10 -10 -11 -11 -11 -11 -11 -11 -11 -11
-15 -15 -15 -15 -15 -15 -15 -15 -14 -14 -14 -14 -13 -13 -13 -13 -13 -13 -12 -12 -12 -12 -12 -11 -11 -11 -11 -11 -11 -11 -11 -11 -11 -11 -11 -11 -11 -11 -11 -11 -11 -11 -11
-16 -16 -16 -16 -15 -15 -15 -15 -15 -15 -15 -14 -14 -14 -14 -14 -13 -13 -13 -13 -12 -12 -12 -12 -12 -12 -12 -11 -11 -11 -11 -11 -11 -11 -11 -11 -11 -11 -12 -12 -11 -11 -12
-16 -16 -16 -16 -16 -16 -16 -16 -16 -15 -15 -15 -15 -15 -14 -14 -14 -14 -13 -13 -13 -13 -13 -12 -12 -12 -12 -12 -12 -11 -11 -11 -11 -12 -12 -12 -12 -12 -12 -12 -12 -12 -12
-17 -17 -17 -17 -17 -17 -16 -16 -16 -16 -16 -16 -15 -15 -15 -15 -14 -14 -14 -14 -14 -13 -13 -13 -13 -13 -12 -12 -12 -12 -12 -12 -12 -12 -12 -12 -12 -12 -12 -12 -12 -12 -12
-17 -17 -17 -17 -17 -17 -17 -17 -16 -16 -16 -16 -16 -16 -16 -15 -15 -15 -15 -14 -14 -14 -14 -13 -13 -13 -13 -13 -13 -13 -12 -12 -12 -12 -12 -12 -12 -12 -12 -12 -12 -12 -12
-17 -17 -17 -17 -17 -17 -17 -17 -17 -17 -17 -17 -16 -16 -16 -16 -16 -15 -15 -15 -15 -14 -14 -14 -14 -14 -13 -13 -13 -13 -13 -13 -13 -13 -13 -13 -13 -13 -13 -13 -13 -13 -13
Wind_Speed
4 3 3 3 3 2 2 2 2 3 3 4 4 4 5 5 6 6 6 6 7 6 6 7 7 6 5 5 5 4 4 4 5 3 2 2 4 4 5 6 7 7 8
4 4 3 3 3 3 2 2 2 3 3 4 4 5 5 5 5 7 7 7 7 8 8 7 8 7 7 6 6 6 5 5 5 5 3 3 4 4 4 4 5 6 7
4 4 4 3 3 4 4 3 3 3 3 3 4 5 5 5 6 7 7 7 8 8 8 9 8 8 8 7 7 7 6 5 4 5 4 3 3 3 3 4 5 5 7
5 4 4 4 4 4 4 4 4 4 3 3 4 5 5 5 6 6 7 6 7 7 7 8 8 9 9 9 8 8 7 6 5 5 4 4 3 3 3 3 4 3 4
5 5 5 5 5 5 4 4 4 4 4 4 4 4 5 5 5 5 5 6 7 7 7 8 8 10 11 10 8 8 8 7 6 6 5 4 4 4 5 4 4 3 4
5 5 6 5 5 5 5 5 4 4 4 4 3 3 4 4 6 7 6 5 6 7 7 7 8 9 11 12 12 12 11 10 9 8 7 7 8 6 4 4 4 3 4
5 5 6 5 5 5 5 5 4 4 4 4 4 4 4 5 7 7 8 5 6 6 6 6 7 8 9 8 10 12 12 14 12 9 9 9 8 7 6 6 6 5 5
5 5 6 6 6 6 5 5 5 4 4 4 4 4 4 5 7 7 7 5 5 6 6 7 8 7 8 8 8 8 8 9 11 9 8 8 7 7 8 7 6 4 4
5 6 6 6 6 6 6 6 5 4 4 4 4 4 4 5 7 7 6 3 4 5 5 5 6 7 11 11 8 8 8 7 11 13 12 10 11 10 8 4 4 4 4
6 6 6 6 6 6 7 6 5 5 5 5 5 4 4 5 7 7 6 3 4 4 4 4 7 8 10 12 8 8 8 8 6 7 8 9 8 9 10 7 6 5 4
7 7 6 6 6 6 6 5 5 5 5 4 4 4 4 5 6 7 7 3 3 4 4 3 4 8 9 10 9 7 9 7 6 6 5 5 5 5 6 6 6 5 5
7 7 7 6 6 6 5 5 5 5 5 4 4 4 3 4 5 6 8 7 5 3 4 3 4 7 8 9 8 8 9 7 4 4 4 5 4 4 4 5 6 6 5
7 8 7 7 6 6 5 5 4 4 4 4 4 4 4 3 4 7 7 7 7 4 3 5 6 6 6 5 7 8 6 4 4 4 4 4 3 3 3 2 2 3 3
7 8 7 7 6 5 4 4 4 4 3 4 4 4 4 4 3 3 3 4 6 5 4 5 5 5 4 4 5 4 3 4 4 4 4 3 2 2 3 3 2 2 2
7 7 7 7 6 4 4 4 5 4 4 4 3 4 4 5 6 7 5 4 3 4 3 2 1 2 2 2 2 2 3 3 4 4 4 3 3 3 3 3 2 2 3
7 7 6 5 5 4 4 5 7 7 9 9 9 8 7 9 10 10 10 10 10 8 5 2 3 3 4 3 3 3 3 3 3 4 4 4 4 4 3 3 3 3 4
7 7 6 6 6 5 5 5 5 7 8 9 9 10 10 10 10 10 10 10 9 7 4 3 3 4 3 3 3 3 3 3 4 4 4 4 4 4 3 3 4 3 4
7 8 7 6 6 5 5 5 5 5 5 5 7 9 10 10 10 9 9 7 4 4 3 3 3 3 3 3 3 3 3 3 3 4 4 4 4 4 4 4 4 4 4
6 5 5 5 5 5 5 5 4 5 5 5 5 6 8 8 9 8 7 3 3 3 3 3 3 3 3 3 3 3 3 3 3 3 4 4 4 4 4 4 4 6 5
6 10 9 6 5 5 5 5 5 5 5 5 5 5 5 5 4 4 3 3 3 3 2 2 2 3 3 3 3 3 3 3 4 4 4 4 4 4 5 5 5 5 5
5 7 10 7 5 5 5 5 5 4 5 5 5 7 9 4 4 4 4 3 3 3 2 2 2 2 3 3 3 4 4 4 4 4 4 4 4 4 5 5 5 5 5
5 5 5 5 5 5 6 5 5 5 5 6 6 6 10 5 4 4 4 3 3 2 2 2 2 2 2 2 3 4 4 4 4 4 4 4 4 5 5 5 5 4 5
5 6 6 6 5 8 8 5 5 5 5 5 5 5 5 4 4 4 4 4 3 3 3 2 2 3 3 4 4 3 4 5 5 5 5 5 5 5 5 5 6 6 5
5 5 6 6 6 6 6 6 5 6 6 6 5 5 5 4 4 4 4 4 3 3 3 3 3 4 4 5 6 6 7 7 7 7 7 6 6 5 5 6 6 6 6
4 5 6 6 6 6 6 6 6 6 6 6 6 5 5 5 5 4 4 4 4 3 4 4 5 5 5 6 7 7 8 9 9 8 7 6 6 6 6 6 6 6 6
4 5 5 5 5 6 6 6 6 6 6 6 6 5 5 5 5 5 4 4 4 4 4 4 6 6 7 8 8 9 10 10 10 10 8 6 5 5 6 5 7 6 6
Wind_Direction
344 337 337 335 331 310 277 267 265 264 247 226 214 211 210 207 202 199 205 207 208 213 215 210 214 208 205 208 203 202 208 205 230 248 234 221 227 237 249 247 245 242 244
339 336 337 340 338 328 298 290 284 264 253 243 221 212 215 217 210 205 207 209 210 213 215 212 217 214 210 207 201 205 210 212 215 231 235 222 229 224 238 245 254 248 244
339 337 336 337 335 327 320 307 299 286 268 259 235 217 216 222 221 217 212 211 214 218 216 214 214 210 214 209 204 205 209 215 206 216 231 228 232 223 233 251 257 254 250
343 339 334 333 329 321 321 321 307 296 277 260 250 236 229 229 230 227 219 213 215 221 222 220 217 214 214 210 208 205 202 204 204 210 222 226 225 221 216 232 254 252 249
343 341 336 334 334 331 326 321 312 296 287 275 260 249 239 233 229 227 224 218 217 220 223 225 227 226 224 221 217 204 198 203 207 212 220 227 224 213 219 225 242 257 256
338 335 337 339 335 330 323 318 312 303 290 283 268 253 246 249 245 242 242 226 221 221 226 229 230 230 232 231 230 224 213 205 206 211 217 220 222 219 214 223 230 248 256
332 331 334 333 328 322 317 317 312 306 301 285 276 263 258 260 261 251 248 238 226 226 225 226 232 227 228 221 226 230 228 227 223 218 217 220 217 210 206 216 223 238 252
330 329 328 327 321 320 316 310 305 301 296 288 272 267 269 271 275 268 261 246 235 231 228 225 222 218 217 214 213 219 223 226 231 228 221 219 221 213 210 214 220 237 262
327 325 324 320 316 315 311 305 297 293 287 283 280 267 266 275 279 277 273 246 244 240 235 231 224 215 224 221 213 213 224 232 237 236 237 237 236 232 224 202 200 215 250
320 317 316 313 307 304 302 300 297 289 284 287 286 277 264 265 275 279 277 248 248 246 242 237 237 226 226 223 213 208 217 224 221 228 231 233 233 228 223 211 199 210 228
318 315 312 309 303 298 297 298 297 294 291 287 284 281 273 275 277 279 279 262 249 245 247 241 238 237 232 230 228 218 224 221 210 214 216 216 216 214 214 217 212 211 217
319 314 311 309 306 305 300 299 299 297 294 288 286 283 275 278 286 286 285 279 268 251 253 253 243 244 242 239 237 229 227 220 201 205 210 212 214 216 213 216 226 231 230
320 315 312 311 307 304 298 295 293 290 288 291 290 291 292 290 287 287 289 294 288 276 261 263 260 252 251 240 238 232 224 203 192 201 207 213 214 205 189 193 206 224 249
317 315 315 313 308 300 295 291 290 287 288 290 291 291 292 291 289 287 284 288 287 283 271 265 264 262 264 249 234 230 214 200 196 198 201 199 190 189 195 190 200 197 227
317 316 316 315 307 300 297 285 285 273 276 280 276 283 286 283 280 281 283 279 270 263 263 243 222 236 232 230 222 210 198 196 200 188 186 189 197 202 206 195 198 203 223
317 318 318 319 315 307 303 304 298 293 296 295 294 291 288 289 292 290 286 285 285 272 267 230 224 223 223 220 220 211 204 202 195 190 189 191 197 202 209 208 205 210 221
309 312 313 315 314 308 307 307 310 312 305 302 301 299 296 295 294 296 292 285 282 273 262 237 225 223 225 218 217 212 208 199 187 189 192 191 194 200 204 209 212 217 229
306 305 309 309 308 304 301 301 301 303 309 309 307 305 305 302 301 301 299 296 282 270 247 235 233 225 222 218 215 211 201 191 189 191 190 191 194 199 207 214 216 218 229
305 305 306 306 305 303 301 300 299 299 300 302 304 307 310 308 306 305 305 290 277 269 255 237 235 234 228 225 216 206 199 200 195 194 196 196 197 199 210 216 222 233 238
305 305 311 310 307 307 305 301 300 300 300 301 301 304 310 308 300 301 297 285 276 273 265 258 250 242 230 223 220 211 206 205 202 203 202 202 204 206 213 218 223 228 234
305 306 309 310 308 306 304 300 297 297 297 298 298 301 307 299 292 293 293 290 280 273 268 262 258 262 252 226 215 212 209 212 210 207 207 209 209 214 219 223 227 230 233
302 303 305 305 305 304 301 299 300 299 300 299 299 300 306 308 303 297 293 293 291 289 277 268 263 253 248 238 221 212 213 216 215 210 213 214 214 217 220 224 226 229 230
300 299 301 302 303 303 305 304 301 296 294 294 296 297 298 298 297 295 293 295 296 293 285 273 270 269 262 258 249 226 222 226 221 212 214 219 219 219 221 224 224 227 232
304 304 304 304 303 300 300 299 296 295 294 294 294 294 292 291 291 292 291 292 289 284 278 271 268 266 264 264 261 253 245 243 238 227 218 219 224 226 224 224 226 227 230
298 298 298 299 301 302 302 302 299 296 294 294 294 295 295 292 291 290 290 290 287 281 278 274 270 267 265 264 262 259 257 257 254 243 227 220 223 225 224 224 227 230 231
297 298 297 298 297 298 299 300 300 301 300 298 296 294 293 290 287 285 286 286 285 283 280 277 273 270 269 268 267 265 264 263 261 256 240 220 219 225 224 227 225 229 229
Height
1466 1466 1465 1465 1466 1466 1466 1467 1468 1469 1470 1471 1472 1472 1474 1474 1476 1478 1479 1481 1482 1483 1485 1487 1489 1491 1493 1495 1497 1498 1500 1502 1501 1501 1504 1506 1507 1507 1509 1509 1510 1510 1511
1464 1463 1463 1463 1463 1462 1462 1462 1463 1464 1465 1466 1467 1467 1468 1469 1470 1472 1473 1475 1476 1477 1479 1481 1482 1484 1486 1488 1490 1492 1494 1496 1497 1496 1498 1500 1501 1502 1503 1504 1504 1505 1505
1461 1461 1460 1459 1459 1459 1458 1458 1459 1459 1460 1461 1462 1462 1463 1464 1465 1466 1468 1469 1470 1471 1472 1474 1475 1477 1479 1481 1483 1485 1487 1489 1491 1492 1492 1494 1495 1497 1497 1498 1499 1499 1500
1459 1458 1457 1456 1456 1455 1455 1454 1454 1455 1455 1456 1457 1457 1458 1458 1459 1460 1461 1462 1463 1465 1466 1467 1469 1470 1472 1474 1476 1478 1481 1483 1485 1486 1487 1488 1489 1491 1492 1492 1493 1494 1494
1457 1456 1455 1454 1453 1452 1451 1451 1450 1450 1450 1451 1451 1452 1452 1453 1454 1455 1455 1456 1457 1458 1460 1461 1462 1464 1465 1467 1469 1471 1474 1476 1478 1479 1480 1482 1483 1484 1485 1486 1487 1488 1488
1455 1454 1453 1451 1450 1449 1448 1447 1446 1446 1446 1446 1446 1446 1447 1447 1448 1449 1450 1450 1451 1452 1453 1454 1455 1457 1459 1460 1462 1465 1467 1469 1471 1473 1474 1475 1476 1478 1480 1481 1482 1482 1482
1453 1452 1450 1449 1447 1446 1445 1444 1443 1442 1441 1441 1441 1441 1442 1442 1443 1444 1444 1445 1445 1446 1446 1447 1448 1450 1452 1453 1455 1458 1460 1463 1465 1467 1467 1468 1470 1472 1474 1475 1476 1476 1476
1450 1449 1448 1446 1444 1443 1441 1440 1439 1438 1437 1436 1436 1436 1437 1437 1438 1438 1439 1439 1440 1440 1440 1441 1442 1444 1445 1447 1449 1451 1453 1456 1458 1460 1461 1462 1465 1466 1468 1469 1470 1471 1472
1447 1446 1444 1443 1441 1439 1438 1436 1435 1434 1433 1432 1431 1432 1432 1432 1433 1433 1434 1434 1434 1434 1435 1436 1437 1438 1440 1442 1443 1445 1447 1449 1452 1454 1456 1457 1459 1460 1462 1463 1464 1465 1464
1444 1442 1441 1440 1438 1436 1434 1432 1431 1430 1429 1428 1427 1427 1427 1427 1428 1428 1429 1429 1429 1429 1430 1430 1431 1433 1434 1436 1438 1439 1440 1442 1445 1447 1449 1451 1452 1454 1455 1456 1458 1459 1458
1441 1439 1438 1436 1434 1432 1430 1429 1427 1426 1425 1424 1423 1423 1423 1423 1423 1423 1424 1424 1424 1425 1425 1426 1426 1427 1429 1431 1433 1434 1435 1437 1439 1440 1442 1444 1446 1447 1449 1450 1451 1453 1453
1438 1436 1434 1432 1430 1428 1426 1425 1424 1422 1421 1420 1419 1419 1419 1419 1419 1419 1420 1420 1420 1420 1420 1421 1422 1423 1424 1426 1427 1429 1431 1432 1433 1435 1436 1438 1439 1441 1443 1444 1446 1447 1448
1435 1432 1430 1427 1426 1424 1423 1421 1420 1419 1418 1417 1416 1415 1415 1415 1415 1415 1415 1416 1416 1416 1416 1417 1418 1418 1419 1420 1422 1424 1425 1427 1428 1429 1430 1432 1433 1435 1437 1439 1440 1441 1442
1431 1429 1426 1424 1422 1420 1419 1418 1417 1416 1415 1414 1413 1412 1411 1411 1411 1411 1411 1411 1411 1412 1412 1412 1413 1413 1414 1415 1417 1418 1420 1421 1423 1424 1425 1427 1429 1430 1431 1433 1434 1435 1436
1428 1425 1423 1421 1418 1417 1416 1415 1414 1413 1413 1412 1410 1410 1408 1407 1407 1408 1407 1407 1407 1408 1407 1407 1408 1409 1410 1411 1412 1413 1415 1416 1418 1419 1420 1422 1423 1425 1426 1427 1429 1429 1430
1425 1422 1420 1418 1416 1414 1413 1412 1411 1411 1410 1409 1408 1407 1406 1406 1405 1404 1404 1404 1404 1404 1404 1403 1403 1404 1405 1406 1407 1408 1410 1411 1413 1414 1416 1417 1418 1420 1421 1423 1424 1425 1425
1422 1420 1417 1415 1413 1412 1410 1409 1407 1406 1406 1405 1404 1404 1403 1402 1401 1400 1399 1399 1400 1400 1399 1399 1399 1400 1401 1402 1403 1404 1405 1407 1408 1410 1411 1412 1414 1415 1417 1418 1419 1420 1421
1420 1417 1415 1413 1411 1409 1408 1406 1405 1403 1402 1400 1400 1400 1399 1398 1397 1396 1396 1396 1395 1395 1395 1395 1395 1396 1397 1398 1399 1400 1401 1403 1404 1405 1407 1408 1410 1411 1412 1413 1414 1415 1416
1417 1415 1412 1410 1408 1407 1405 1404 1402 1401 1399 1398 1396 1396 1395 1394 1393 1393 1392 1392 1391 1391 1391 1391 1391 1392 1393 1394 1394 1395 1397 1398 1399 1401 1402 1404 1405 1407 1408 1409 1410 1410 1411
1414 1412 1410 1408 1406 1404 1402 1400 1399 1397 1396 1395 1393 1392 1391 1390 1389 1388 1388 1388 1387 1387 1387 1387 1388 1388 1389 1389 1390 1391 1392 1394 1395 1396 1398 1399 1401 1402 1403 1404 1405 1406 1406
1411 1409 1407 1405 1403 1401 1399 1397 1396 1394 1393 1392 1390 1390 1389 1387 1386 1385 1385 1384 1384 1383 1383 1383 1384 1384 1385 1385 1386 1387 1388 1389 1390 1392 1393 1395 1396 1397 1398 1399 1400 1401 1401
1408 1406 1404 1402 1400 1398 1396 1395 1393 1391 1390 1388 1387 1386 1385 1384 1383 1382 1381 1381 1380 1380 1380 1380 1380 1380 1381 1381 1382 1382 1383 1385 1386 1387 1389 1390 1391 1392 1393 1394 1395 1396 1397
1405 1403 1401 1399 1397 1395 1393 1391 1390 1388 1387 1385 1384 1382 1382 1380 1380 1379 1378 1377 1377 1376 1376 1376 1376 1376 1377 1377 1377 1378 1379 1380 1381 1382 1384 1385 1386 1387 1388 1389 1390 1391 1392
1401 1400 1398 1395 1394 1392 1390 1388 1386 1385 1383 1382 1380 1379 1378 1377 1376 1375 1374 1373 1373 1372 1372 1372 1372 1372 1372 1373 1373 1374 1374 1375 1376 1377 1378 1379 1380 1381 1383 1383 1385 1386 1387
1398 1396 1394 1392 1390 1388 1386 1385 1383 1381 1380 1378 1377 1375 1374 1373 1372 1371 1370 1369 1369 1368 1368 1368 1367 1367 1367 1368 1368 1369 1370 1370 1371 1372 1373 1374 1375 1376 1377 1378 1379 1380 1381
1394 1392 1391 1389 1387 1385 1383 1381 1379 1377 1376 1374 1373 1371 1370 1369 1367 1366 1366 1365 1364 1364 1363 1363 1363 1363 1363 1363 1364 1364 1365 1365 1366 1367 1368 1369 1370 1371 1372 1373 1374 1375 1375